EDT,Max TemperatureF,Mean TemperatureF,Min TemperatureF,Max Dew PointF,MeanDew PointF,Min DewpointF,Max Humidity, Mean Humidity, Min Humidity, Max Sea Level PressureIn, Mean Sea Level PressureIn, Min Sea Level PressureIn, Max VisibilityMiles, Mean VisibilityMiles, Min VisibilityMiles, Max Wind SpeedMPH, Mean Wind SpeedMPH, Max Gust SpeedMPH,PrecipitationIn, CloudCover, Events, WindDirDegrees
2013-4-1,75,63,51,57,44,34,100,63,25,29.95,29.88,29.82,10,10,7,22,6,33,0.02,3,Rain,282
2013-4-2,70,57,43,34,30,23,65,43,20,30.13,30.04,29.96,10,10,9,16,5,23,T,3,,346
2013-4-3,60,54,47,33,24,15,50,37,23,30.24,30.18,30.11,10,10,4,18,6,24,T,4,Rain,63
2013-4-4,52,45,37,37,33,23,100,69,38,30.21,30.09,29.97,10,8,2,23,12,30,0.65,8,Rain,31
2013-4-5,67,51,35,42,38,31,100,64,28,30.04,29.97,29.90,10,10,8,14,5,20,0.00,4,,10
2013-4-6,70,55,39,38,34,29,76,49,22,30.20,30.13,30.05,10,10,10,15,4,20,0.00,0,,118
2013-4-7,72,57,42,47,42,36,83,59,35,30.23,30.16,30.09,10,10,9,17,5,24,0.00,1,,198
2013-4-8,79,66,53,55,51,47,93,67,40,30.15,30.10,30.04,10,10,9,17,8,23,0.00,3,,205
2013-4-9,82,68,54,57,54,50,86,62,37,30.18,30.12,30.08,10,10,10,20,6,23,0.00,1,,207
2013-4-10,84,72,60,59,56,54,84,62,39,30.10,30.03,29.93,10,10,10,16,9,25,0.00,0,,212
2013-4-11,81,71,60,66,60,55,90,71,52,29.96,29.86,29.70,10,10,8,25,9,38,0.35,5,Rain-Thunderstorm,194
2013-4-12,79,68,56,66,56,35,100,63,26,29.81,29.71,29.65,10,8,1,28,12,37,0.76,5,Rain-Thunderstorm,221
2013-4-13,77,64,51,42,37,33,59,41,23,30.00,29.92,29.83,10,10,10,10,4,16,0.00,0,,29
2013-4-14,70,60,49,54,44,34,93,65,36,30.06,30.02,29.97,10,10,5,14,5,17,0.04,3,Rain,75
2013-4-15,72,64,55,59,56,54,100,79,57,30.18,30.03,29.95,10,8,3,9,6,13,0.14,8,Rain,34
2013-4-16,78,69,59,61,57,55,87,68,48,30.29,30.21,30.16,10,10,10,9,3,14,0.00,6,,86
2013-4-17,83,71,59,64,61,58,100,76,51,30.24,30.16,30.10,10,10,2,14,4,20,0.19,5,Rain-Thunderstorm,328
2013-4-18,80,70,59,63,60,58,100,74,48,30.13,30.07,29.95,10,6,1,14,5,17,T,4,,153
2013-4-19,74,62,50,65,60,48,96,85,73,29.94,29.84,29.75,10,8,2,26,12,36,0.46,7,Rain-Thunderstorm,211
2013-4-20,65,53,41,46,32,27,74,51,27,30.25,30.10,29.93,10,10,10,17,6,23,0.00,1,,355
2013-4-21,64,54,43,40,35,31,65,50,34,30.40,30.33,30.25,10,10,10,17,8,23,0.00,2,,43
2013-4-22,63,54,45,39,36,32,83,58,32,30.39,30.30,30.20,10,10,9,20,8,30,0.00,0,,50
2013-4-23,72,58,43,49,41,33,77,58,38,30.26,30.17,30.09,10,10,4,14,6,20,0.00,0,,71
2013-4-24,75,63,51,59,53,48,96,73,49,30.12,30.08,30.01,10,10,6,23,11,31,T,4,Rain,220
2013-4-25,73,62,50,59,42,29,97,60,22,30.27,30.15,30.04,10,10,6,13,5,17,0.00,4,,35
2013-4-26,72,61,49,45,35,27,55,41,27,30.40,30.33,30.27,10,10,9,17,6,40,0.00,0,,71
2013-4-27,62,58,54,56,52,41,100,75,49,30.34,30.30,30.23,10,8,3,9,4,13,0.30,8,Rain,1
2013-4-28,54,53,52,54,52,51,100,97,93,30.24,30.13,30.04,10,5,1,12,5,18,1.74,8,Rain,23
2013-4-29,74,64,54,59,56,53,100,79,57,30.06,30.00,29.91,10,9,2,14,5,18,0.07,6,Rain,196
2013-4-30,76,65,54,62,57,54,100,75,50,30.14,30.04,29.96,10,7,0,15,6,18,0.00,3,Fog,52